Location: Wald
(31.7579°N, 86.6655°W)
Time: 20:25:30
(UTC+00:00)

CZ-4B R/B - Pass Details

Date: 14 July 2020
Orbit: 496 x 647 km, 97.8° (Epoch: 13 August)

Event Time Altitude Azimuth Distance (km) Brightness Sun altitude
Rises 10:20:01 0° 13° (NNE) 2,804 8.1 -6.7°
Reaches altitude 10° 10:22:14 10° 15° (NNE) 1,876 7.3 -6.3°
Maximum altitude 10:26:17 78° 101° (ESE) 565 4.0 -5.6°
Drops below altitude 10° 10:30:07 10° 189° (S) 1,776 6.1 -4.9°
Sets 10:32:10 0° 190° (S) 2,640 6.9 -4.5°
